Regional Weather Roundup
Issued by NWS

Home | Current Version | Previous Version | Graphics & Text | Print | Product List | Glossary On
Versions: 1 2 3 4 5 6 7 8 9 10 11 12 13 14 15 16 17 18 19 20 21 22 23 24 25 26 27 28 29 30 31 32 33 34 35 36 37 38 39 40 41 42 43 44 45 46 47 48 49 50
000
ASUS43 KLMK 231502
RWRKY
KENTUCKY REGIONAL WEATHER ROUNDUP
NATIONAL WEATHER SERVICE LOUISVILLE KY
1100 AM EDT TUE AUG 23 2016

NOTE "FAIR" INDICATES FEW OR NO CLOUDS BELOW 12,000 FEET
WITH NO SIGNIFICANT WEATHER AND/OR OBSTRUCTIONS TO VISIBILITY.

KYZ001>023-026-027-061>063-070>075-231600-
WESTERN AND SOUTH CENTRAL KENTUCKY

CITY           SKY/WX    TMP DP  RH WIND       PRES   REMARKS
PADUCAH        CLOUDY    73  66  78 SE6       30.24S
HENDERSON      MOSUNNY   77  63  61 SE6       30.25S
OWENSBORO      MOSUNNY   78  66  66 S5        30.28S
HOPKINSVILLE   CLOUDY    74  63  67 SE5       30.27S
BOWLING GREEN  SUNNY     74  65  73 CALM      30.28S
GLASGOW        CLOUDY    75  65  72 CALM      30.28S
$$

KYZ024-025-028>034-038-045-046-053-231600-
NORTH CENTRAL KENTUCKY

CITY           SKY/WX    TMP DP  RH WIND       PRES   REMARKS
LOUISVILLE/SDF MOSUNNY   77  59  53 S8        30.28S
LOUISVILLE/LOU SUNNY     77  59  53 S5        30.28F
FORT KNOX      SUNNY     75  63  65 S1        30.28R
$$

KYZ035>037-039>044-047>052-055>060-089>105-231600-
NORTHEAST KENTUCKY

CITY           SKY/WX    TMP DP  RH WIND       PRES   REMARKS
LEXINGTON      SUNNY     76  56  49 SE7       30.31S
COVINGTON      MOSUNNY   75  60  59 S10       30.31R
FRANKFORT      SUNNY     77  61  57 SE7       30.29S
$$

KYZ054-064>069-076>088-106>120-231600-
SOUTHEAST KENTUCKY

CITY           SKY/WX    TMP DP  RH WIND       PRES   REMARKS
JACKSON        SUNNY     72  61  68 CALM      30.32S
LONDON         SUNNY     74  59  59 VRB5      30.31S
SOMERSET       SUNNY     72  63  73 CALM      30.32S
MIDDLESBORO    SUNNY     67  62  83 CALM      30.34S
MONTICELLO     SUNNY    N/A N/A N/A E9        30.32R
$$




USA.gov is the U.S. government's official web portal to all federal, state and local government web resources and services.